Miles City, MT

5:47 AM MDT on May 25, 2018 (GMT -0600)
Wiley

Weather History for KMLS - July, 2013

Change the Weather History Date:

Tuesday, July 23, 2013

  Actual Average Record
Temperature  
Mean Temperature 74 °F 75 °F  
Max Temperature 87 °F 90 °F 110 °F (2007)
Min Temperature 60 °F 61 °F 49 °F (1950)
Degree Days  
Heating Degree Days 0 0  
Month to date heating degree days 0 10  
Since 1 June heating degree days 59 99  
Since 1 July heating degree days 0 10  
Cooling Degree Days 9 10  
Month to date cooling degree days 273 203  
Year to date cooling degree days 379 330  
Since 1 June cooling degree days 366 310  
Growing Degree Days 24 (Base 50)    
Moisture  
Dew Point 55 °F    
Average Humidity 57    
Maximum Humidity 84    
Minimum Humidity 30    
Precipitation  
Precipitation 0.00 in 0.05 in 1.08 in (1953)
Month to date precipitation 0.52 1.26  
Year to date precipitation 11.55 8.47  
Sea Level Pressure  
Sea Level Pressure 29.97 in    
Wind  
Wind Speed 7 mph (ENE)    
Max Wind Speed 16 mph    
Max Gust Speed 20 mph    
Visibility 10 miles    
Events      
T = Trace of Precipitation, MM = Missing Value Source: NWS Daily Summary

Daily Weather History Graph

Daily Weather History Graph

Search for Another Location

Airport or City:

Astronomy

Jul. 23, 2013 Rise Set
Actual Time 5:34 AM MDT 8:44 PM MDT
Civil Twilight 4:58 AM MDT 9:20 PM MDT
Nautical Twilight 4:11 AM MDT 10:07 PM MDT
Astronomical Twilight 3:12 AM MDT 11:05 PM MDT
Moon 9:04 PM MDT (7/23) 6:54 AM MDT (7/23)
Length of Visible Light 16h 22m
Length of Day
15h 10m
Full, 99% of the Moon is Illuminated
Jul 23
Full
Jul 29
Last Quarter
Aug 6
New
Aug 14
First Quarter
Aug 20
Full

Hourly Weather History & Observations

Time (MDT) Temp. Heat Index Dew Point Humidity Pressure Visibility Wind Dir Wind Speed Gust Speed Precip Events Conditions
12:53 AM 66.0 °F - 55.0 °F 68% 29.91 in 10.0 mi ENE 13.8 mph - N/A   Clear
1:53 AM 66.0 °F - 55.0 °F 68% 29.92 in 10.0 mi East 8.1 mph - N/A   Clear
2:53 AM 64.9 °F - 55.0 °F 70% 29.92 in 10.0 mi ESE 5.8 mph - N/A   Scattered Clouds
3:53 AM 62.1 °F - 55.0 °F 78% 29.93 in 10.0 mi SSE 5.8 mph - N/A   Clear
4:53 AM 62.1 °F - 55.0 °F 78% 29.93 in 10.0 mi South 3.5 mph - N/A   Clear
5:53 AM 60.1 °F - 55.0 °F 83% 29.94 in 10.0 mi South 6.9 mph - N/A   Clear
6:53 AM 64.0 °F - 55.9 °F 75% 29.96 in 10.0 mi Calm Calm - N/A   Clear
7:53 AM 66.9 °F - 55.9 °F 68% 29.98 in 10.0 mi Calm Calm - N/A   Clear
8:53 AM 70.0 °F - 55.9 °F 61% 29.99 in 10.0 mi Calm Calm - N/A   Clear
9:53 AM 72.0 °F - 57.0 °F 59% 29.99 in 10.0 mi ESE 4.6 mph - N/A   Clear
10:53 AM 77.0 °F - 55.9 °F 48% 29.99 in 10.0 mi NE 9.2 mph - N/A   Clear
11:53 AM 81.0 °F 80.8 °F 55.9 °F 42% 29.98 in 10.0 mi Variable 6.9 mph - N/A   Clear
12:53 PM 81.0 °F 80.4 °F 53.1 °F 38% 29.98 in 10.0 mi East 8.1 mph - N/A   Clear
1:53 PM 84.9 °F 83.3 °F 54.0 °F 34% 29.98 in 10.0 mi NNE 8.1 mph - N/A   Clear
2:53 PM 87.1 °F 85.1 °F 54.0 °F 32% 29.98 in 10.0 mi ESE 9.2 mph 17.3 mph N/A   Clear
3:53 PM 86.0 °F 84.5 °F 55.0 °F 35% 29.98 in 10.0 mi East 10.4 mph - N/A   Clear
4:53 PM 86.0 °F 84.2 °F 54.0 °F 33% 29.97 in 10.0 mi East 5.8 mph - N/A   Mostly Cloudy
5:53 PM 84.9 °F 83.3 °F 54.0 °F 34% 29.97 in 10.0 mi ENE 8.1 mph - N/A   Scattered Clouds
6:53 PM 86.0 °F - 51.1 °F 30% 29.96 in 10.0 mi North 11.5 mph - N/A   Partly Cloudy
7:53 PM 82.9 °F - 52.0 °F 34% 29.98 in 10.0 mi NNE 12.7 mph - N/A   Clear
8:53 PM 79.0 °F - 52.0 °F 39% 30.00 in 10.0 mi NNE 8.1 mph - N/A   Clear
9:53 PM 73.9 °F - 55.9 °F 53% 30.04 in 10.0 mi NE 11.5 mph - N/A   Clear
10:53 PM 70.0 °F - 57.0 °F 63% 30.04 in 10.0 mi NE 9.2 mph - N/A   Clear
11:53 PM 69.1 °F - 57.0 °F 65% 30.05 in 10.0 mi ENE 8.1 mph - N/A   Clear